This is the latest recevied weather packets stored in our database for station/object KK6LVQ-13. If no packets are shown the sender has not sent any weather packets the latest 10 day(s).
| Time | Temp. | Humidity | Pressure | Rain* | Wind** | Luminosity | Snow |
|---|---|---|---|---|---|---|---|
| 1777669231 | 22.78° C | 59% | 1018.8 hPa | 0 mm | - | 734 W/m² | - |
| 1777667109 | 23.89° C | 57% | 1019 hPa | 0 mm | - | 741 W/m² | - |
| 1777666805 | 23.89° C | 58% | 1019.1 hPa | 0 mm | - | 671 W/m² | - |
| 1777664986 | 21.67° C | 60% | 1019.2 hPa | 0 mm | - | 781 W/m² | - |
| 1777662562 | 20° C | 59% | 1019.8 hPa | 0 mm | - | 742 W/m² | - |
| 1777662258 | 20° C | 64% | 1020 hPa | 0 mm | - | 756 W/m² | - |
| 1777660741 | 17.78° C | 69% | 1020.2 hPa | 0 mm | - | 731 W/m² | - |
| 1777660439 | 17.78° C | 72% | 1020.4 hPa | 0 mm | - | 716 W/m² | - |
| 1777660136 | 17.78° C | 73% | 1020.4 hPa | 0 mm | - | 705 W/m² | - |
| 1777659832 | 17.22° C | 74% | 1020.3 hPa | 0 mm | - | 680 W/m² | - |
| 1777659529 | 16.67° C | 76% | 1020.6 hPa | 0 mm | - | 666 W/m² | - |
| 1777658013 | 15.56° C | 79% | 1020.7 hPa | 0 mm | - | 638 W/m² | - |
| 1777657105 | 15.56° C | 79% | 1020.7 hPa | 0 mm | - | 619 W/m² | - |
| 1777656803 | 15.56° C | 79% | 1020.7 hPa | 0 mm | - | 610 W/m² | - |
| 1777655889 | 14.44° C | 81% | 1020.8 hPa | 0 mm | - | 577 W/m² | - |
| 1777654073 | 13.33° C | 85% | 1020.8 hPa | 0 mm | - | 499 W/m² | - |
| 1777653465 | 12.78° C | 87% | 1020.8 hPa | 0 mm | - | 463 W/m² | - |
| 1777653163 | 12.22° C | 88% | 1021 hPa | 0 mm | - | 456 W/m² | - |
| 1777652858 | 12.22° C | 89% | 1020.9 hPa | 0 mm | - | 440 W/m² | - |
| 1777652555 | 11.67° C | 89% | 1021.1 hPa | 0 mm | - | 425 W/m² | - |
| 1777652252 | 11.67° C | 90% | 1020.9 hPa | 0 mm | - | 409 W/m² | - |
| 1777651950 | 11.67° C | 90% | 1021 hPa | 0 mm | - | 394 W/m² | - |
| 1777651646 | 11.67° C | 90% | 1021.1 hPa | 0 mm | - | 379 W/m² | - |
| 1777651343 | 11.11° C | 90% | 1021 hPa | 0 mm | - | 341 W/m² | - |
| 1777651040 | 11.11° C | 91% | 1020.9 hPa | 0 mm | - | 312 W/m² | - |
* Rain latest hour (hover to see other rain measurements)
** Current wind speed in m/s (hover to see current wind gust speed)